TimeCST,TemperatureF,Dew PointF,Humidity,Sea Level PressureIn,VisibilityMPH,Wind Direction,Wind SpeedMPH,Gust SpeedMPH,PrecipitationIn,Events,Conditions,WindDirDegrees,DateUTC
12:52 AM,15.1,8.1,74,30.13,-9999.0,Calm,Calm,-,N/A,,Unknown,0,2013-01-04 06:52:00
1:52 AM,14.0,7.0,74,30.12,-9999.0,West,5.8,-,N/A,,Unknown,280,2013-01-04 07:52:00
2:52 AM,15.1,8.1,74,30.12,-9999.0,West,11.5,-,N/A,,Unknown,280,2013-01-04 08:52:00
3:52 AM,16.0,8.1,71,30.13,-9999.0,West,6.9,-,N/A,,Unknown,280,2013-01-04 09:52:00
4:52 AM,19.9,10.0,65,30.11,-9999.0,West,12.7,-,N/A,,Unknown,280,2013-01-04 10:52:00
5:52 AM,15.1,8.1,74,30.13,-9999.0,WNW,10.4,-,N/A,,Unknown,290,2013-01-04 11:52:00
6:52 AM,18.0,10.0,71,30.15,-9999.0,WNW,9.2,-,N/A,,Unknown,290,2013-01-04 12:52:00
7:52 AM,14.0,7.0,74,30.15,-9999.0,NNW,13.8,-,N/A,,Unknown,330,2013-01-04 13:52:00
8:52 AM,12.0,6.1,77,30.16,-9999.0,NW,9.2,-,N/A,,Unknown,320,2013-01-04 14:52:00
9:52 AM,14.0,7.0,74,30.16,-9999.0,Calm,Calm,-,N/A,,Unknown,0,2013-01-04 15:52:00
10:52 AM,15.1,8.1,74,30.17,-9999.0,Calm,Calm,-,N/A,,Unknown,0,2013-01-04 16:52:00
11:52 AM,17.1,10.0,74,30.15,-9999.0,Calm,Calm,-,N/A,,Unknown,0,2013-01-04 17:52:00
12:52 PM,19.0,12.0,74,30.13,-9999.0,Calm,Calm,-,N/A,,Unknown,0,2013-01-04 18:52:00
1:52 PM,21.9,12.9,68,30.10,-9999.0,West,4.6,-,N/A,,Unknown,260,2013-01-04 19:52:00
2:52 PM,21.0,14.0,74,30.07,-9999.0,SSW,3.5,-,N/A,,Unknown,200,2013-01-04 20:52:00
3:52 PM,21.9,12.9,68,30.09,-9999.0,NNE,3.5,-,N/A,,Unknown,20,2013-01-04 21:52:00
4:52 PM,16.0,10.0,77,30.07,-9999.0,South,5.8,-,N/A,,Unknown,170,2013-01-04 22:52:00
5:52 PM,12.9,7.0,77,30.09,-9999.0,Calm,Calm,-,N/A,,Unknown,0,2013-01-04 23:52:00
6:52 PM,8.1,5.0,87,30.08,-9999.0,Calm,Calm,-,N/A,,Unknown,0,2013-01-05 00:52:00
7:52 PM,7.0,3.9,87,30.08,-9999.0,Calm,Calm,-,N/A,,Unknown,0,2013-01-05 01:52:00
8:52 PM,5.0,1.9,87,30.06,-9999.0,Calm,Calm,-,N/A,,Unknown,0,2013-01-05 02:52:00
9:52 PM,5.0,1.0,84,30.04,-9999.0,Calm,Calm,-,N/A,,Unknown,0,2013-01-05 03:52:00
10:52 PM,3.9,1.0,88,30.03,-9999.0,Calm,Calm,-,N/A,,Unknown,0,2013-01-05 04:52:00
11:52 PM,7.0,3.0,84,30.01,-9999.0,Calm,Calm,-,N/A,,Unknown,0,2013-01-05 05:52:00